Wind_Speed
36 44 42 40 42 41 33 31 31 33 33 33 33 31 28 25 14 10 8 9 7 10 5 0 1 2 2 4 9 10 9 10 13 13 13 14 14 14 15 16 17 17 17 18 18 17 14 14 15
41 40 42 41 44 41 33 34 35 33 35 36 41 36 30 22 20 16 12 14 11 9 3 4 4 6 5 5 9 9 7 8 9 12 14 16 17 17 17 17 17 18 18 19 18 17 17 15 16
42 43 42 43 43 42 36 38 37 35 37 39 41 40 35 33 29 22 22 16 19 6 3 7 10 7 7 7 7 6 5 6 8 11 13 15 16 16 16 16 17 17 18 16 18 19 19 19 19
40 44 44 45 36 42 39 39 42 39 39 40 42 46 42 35 31 30 27 24 21 8 6 10 15 16 10 7 6 5 5 7 8 10 12 13 15 15 16 17 17 17 16 17 18 18 19 20 23
46 43 43 45 43 37 44 44 44 42 41 43 41 45 46 41 33 31 30 29 16 12 12 13 17 18 13 9 9 7 6 7 8 8 10 11 13 13 14 15 16 18 19 19 19 19 20 21 23
48 49 48 46 39 41 56 48 44 42 41 45 44 45 48 44 39 33 33 28 22 14 19 12 16 18 16 16 10 9 10 10 7 8 9 9 11 11 12 13 16 19 21 21 21 20 21 21 22
49 46 49 49 44 45 50 46 48 44 41 42 44 44 47 45 40 41 38 32 24 23 21 15 18 19 19 19 18 16 15 12 10 9 10 10 10 11 11 12 15 18 20 21 22 22 23 23 24
46 49 49 43 50 51 44 53 51 47 44 43 43 45 41 43 42 43 45 40 33 26 23 22 21 20 20 21 20 19 17 15 11 11 12 12 12 13 12 13 15 17 19 20 22 23 26 26 27
47 50 50 44 46 54 48 62 58 48 47 45 43 44 39 43 40 42 43 41 37 27 22 21 23 23 22 21 19 16 16 17 14 13 12 11 12 14 15 13 14 16 17 19 20 22 25 28 30
54 52 51 45 45 47 52 54 66 51 46 46 44 42 41 38 43 42 45 45 43 30 26 24 25 26 26 24 22 19 17 18 16 14 15 14 15 16 17 16 14 14 16 17 20 22 25 28 30
56 55 51 50 46 42 47 44 64 59 48 46 46 40 44 44 45 43 41 47 41 36 34 25 26 29 31 27 24 23 19 17 18 17 18 16 17 19 17 16 16 15 17 20 21 21 24 27 29
45 54 57 51 47 40 43 43 62 65 48 47 45 46 44 46 46 48 48 43 48 44 36 33 28 31 29 26 24 24 22 19 21 21 20 18 16 16 17 18 16 17 18 20 22 24 24 27 27
40 46 52 54 51 45 42 34 51 74 53 50 49 48 48 49 51 49 49 47 44 46 45 34 38 29 33 30 27 29 23 28 23 24 26 22 16 15 18 18 16 18 19 22 24 26 25 27 31
35 39 45 50 50 47 46 41 43 63 60 51 56 50 51 55 53 54 55 52 53 49 44 43 40 34 34 33 36 24 29 29 34 30 29 30 21 19 20 18 15 19 20 22 25 28 29 30 33
31 33 37 42 46 47 46 41 42 44 69 54 64 57 56 54 57 55 59 56 51 50 51 52 44 47 41 37 39 43 27 40 39 37 36 31 27 30 24 22 19 20 19 22 27 31 32 33 35
31 31 33 35 36 37 41 41 42 46 46 53 62 69 58 58 56 59 56 54 58 56 50 52 50 53 45 46 45 35 34 35 36 27 30 32 31 36 32 26 22 24 18 22 28 32 34 35 39
33 33 32 35 34 32 34 37 39 44 43 43 57 67 69 58 58 56 56 58 55 55 57 56 59 58 60 50 51 37 30 32 33 36 36 37 41 37 40 34 26 20 24 22 30 35 39 38 40
37 36 35 35 36 34 34 35 35 39 40 42 42 47 65 70 59 57 61 58 55 54 56 62 58 51 49 50 53 48 33 36 40 48 39 43 54 42 35 35 40 29 25 28 31 38 43 43 45
41 40 39 38 40 39 38 38 36 37 39 40 43 41 45 75 64 65 61 60 61 59 58 57 58 56 57 56 58 58 50 35 44 49 37 43 45 43 47 35 43 39 30 32 29 39 46 47 50
37 39 40 41 42 43 41 40 41 40 41 42 43 45 46 48 51 75 72 66 65 62 58 61 62 60 59 62 60 57 45 44 46 44 42 44 45 47 43 36 41 42 35 40 34 37 45 47 48
32 34 36 38 39 40 41 41 39 40 43 45 47 47 48 50 51 52 63 72 73 69 65 62 62 61 61 59 61 59 56 60 59 57 54 49 48 45 34 32 40 40 38 38 37 39 44 49 48
30 32 34 35 36 37 39 40 36 38 41 44 45 47 49 52 55 57 58 58 68 76 78 70 69 63 61 62 61 61 66 66 61 55 56 54 51 42 40 41 43 42 41 41 40 41 48 48 43
30 31 32 32 33 33 32 38 37 35 38 40 43 45 48 50 54 59 62 64 65 65 65 70 79 74 72 70 69 70 68 68 69 67 63 57 55 46 43 46 47 45 47 48 42 44 48 43 39
30 31 31 31 32 33 32 35 35 34 39 40 42 45 46 48 54 58 61 64 68 69 69 68 67 68 72 83 78 77 80 79 76 67 63 58 51 45 46 49 51 50 49 45 40 44 44 39 37
29 30 31 31 30 32 34 36 34 38 41 46 50 50 53 54 52 53 57 62 65 67 69 71 71 69 67 65 69 77 74 70 69 63 54 53 52 46 44 49 51 53 49 42 40 41 40 36 37
27 28 28 31 30 30 32 37 33 36 35 37 50 56 57 60 58 57 58 59 61 64 68 68 70 70 69 68 65 61 60 62 60 60 55 54 45 45 48 52 52 49 46 38 39 41 37 36 38
27 26 26 27 26 28 29 30 28 27 33 46 50 55 62 65 66 66 65 64 62 61 64 68 70 70 70 69 67 63 60 57 58 55 53 54 45 46 51 54 48 48 41 38 38 40 35 37 38
27 25 22 22 26 25 23 22 19 26 36 43 50 56 60 64 67 70 73 73 70 70 68 66 68 70 71 70 67 64 62 56 54 54 54 50 44 45 48 45 44 48 41 36 37 37 37 38 37
30 24 22 24 24 26 27 21 26 31 31 39 46 50 49 52 57 58 59 66 73 76 75 73 70 69 69 69 68 65 61 59 57 57 54 49 44 45 44 43 47 45 38 36 37 35 38 39 35
26 25 23 23 24 28 30 23 31 36 35 36 43 47 51 46 40 39 39 39 48 56 68 76 76 71 69 69 68 66 63 60 58 58 56 51 47 48 45 44 48 43 40 38 37 37 38 37 32
Wind_Direction
242 227 219 219 223 218 208 211 216 217 214 220 213 215 218 223 230 209 221 208 216 121 57 66 95 32 12 17 11 9 12 28 29 19 17 14 20 15 10 7 5 1 357 352 346 342 337 333 338
234 234 228 218 223 214 210 207 219 223 219 217 214 214 219 224 222 205 219 229 202 144 78 347 272 278 278 337 352 356 7 18 25 25 24 20 20 20 14 9 10 4 1 358 353 346 338 338 337
239 236 239 233 224 214 209 210 219 223 224 219 215 215 214 212 218 215 218 224 243 167 128 295 287 277 249 303 346 351 353 0 3 2 1 356 351 357 359 4 7 11 7 1 356 346 342 338 340
238 238 235 238 234 219 213 213 219 223 222 223 218 218 219 220 216 218 219 220 237 205 203 265 281 273 275 276 306 325 320 340 354 353 354 353 351 357 4 4 6 6 11 3 355 346 344 344 341
235 233 234 234 234 217 218 217 218 222 220 224 219 224 217 221 214 222 224 228 210 217 219 254 269 275 276 272 260 275 291 312 333 338 343 346 346 350 357 2 3 6 7 6 360 353 346 345 344
236 236 233 234 235 239 207 220 223 221 220 221 219 224 221 218 216 221 224 224 219 204 223 240 263 274 272 269 252 271 279 302 319 327 330 338 342 345 358 4 14 14 12 10 3 355 352 349 342
236 240 239 236 235 235 210 217 222 220 222 225 221 223 224 219 217 221 224 221 217 209 221 233 257 266 264 258 253 266 274 284 301 310 313 329 337 337 350 4 14 13 12 10 3 357 354 351 347
243 244 242 241 233 233 229 211 221 220 218 223 222 221 223 216 219 221 223 230 231 211 231 240 254 260 252 253 250 256 264 276 288 295 305 314 319 322 334 354 1 8 11 8 1 0 356 351 346
240 244 245 244 240 238 227 206 217 214 217 219 218 217 219 218 217 221 223 230 234 217 225 228 241 252 241 245 246 248 261 269 278 286 291 297 308 317 322 335 347 354 0 1 357 353 355 352 348
237 243 244 246 246 246 236 224 212 213 212 217 216 217 217 212 216 218 225 227 235 223 210 216 228 231 229 234 244 250 252 264 270 278 285 286 295 308 316 320 328 336 343 346 348 348 348 346 344
239 240 245 247 247 255 238 227 206 215 205 211 213 212 214 217 216 218 220 221 225 223 224 208 224 228 231 236 238 242 234 249 267 274 280 278 284 294 304 310 318 331 333 336 339 338 340 343 340
245 242 243 245 248 252 242 247 217 211 201 202 212 210 208 214 219 220 225 221 227 230 218 216 211 225 225 225 230 235 237 239 256 266 263 260 268 280 290 299 307 314 319 324 328 328 334 334 334
245 243 242 243 247 248 252 256 217 211 205 203 205 206 209 206 215 218 221 223 224 228 237 222 218 214 220 220 226 231 241 223 233 250 250 244 245 263 281 283 293 304 311 318 318 317 323 325 324
244 246 242 240 241 244 245 248 235 221 209 206 206 207 206 213 209 214 223 225 231 229 228 218 220 210 216 221 226 226 235 246 226 227 231 230 242 248 264 268 282 290 300 309 311 312 313 313 316
245 244 245 244 240 239 241 243 248 233 221 208 208 212 211 212 215 210 220 226 224 228 223 221 230 216 217 224 231 231 227 239 245 240 231 231 233 246 248 252 260 270 289 304 307 306 307 309 309
248 246 247 249 244 243 241 236 238 243 244 228 216 213 214 215 219 221 221 214 222 226 232 243 237 219 208 216 224 238 231 242 248 250 243 248 240 246 254 243 264 276 288 299 302 305 307 305 305
248 247 245 247 247 246 243 240 235 240 243 249 230 221 217 213 216 218 221 229 229 228 233 236 246 228 236 213 218 228 217 240 248 256 253 261 253 264 266 269 249 277 279 287 297 303 302 302 301
251 250 247 247 247 246 243 242 238 239 241 241 248 239 222 220 218 219 225 226 225 227 230 239 231 241 249 237 227 223 232 247 251 259 265 270 261 255 251 279 284 284 272 295 300 302 297 296 297
250 251 252 250 251 249 246 244 240 242 241 240 237 241 248 221 225 222 222 226 230 234 237 239 247 253 252 252 259 254 265 245 253 260 265 270 276 298 288 288 290 263 288 281 298 297 292 294 297
251 253 254 254 254 255 252 250 249 245 244 243 241 238 239 244 244 226 226 226 229 230 232 237 241 245 250 254 260 260 259 240 247 253 259 261 270 275 277 283 289 290 293 301 297 299 296 299 298
252 252 251 252 251 254 254 251 251 253 252 248 245 243 239 239 241 244 235 227 228 230 235 234 237 240 244 248 252 256 255 256 258 254 262 265 270 274 282 282 283 281 293 296 292 293 292 294 302
254 253 253 254 253 253 255 253 248 250 250 251 248 243 242 240 239 239 240 239 237 233 231 235 233 234 240 242 242 245 252 256 258 261 265 258 268 271 273 273 278 282 288 293 293 285 287 297 305
255 255 255 256 256 253 253 253 249 248 252 252 252 251 246 241 240 240 239 239 241 240 240 239 233 233 235 239 244 248 250 254 256 261 258 264 267 265 263 268 275 279 288 287 289 284 288 299 304
254 254 254 253 255 257 256 256 253 258 257 255 254 252 249 248 243 239 238 239 240 241 243 243 243 240 241 241 240 245 250 254 259 259 261 265 260 259 266 275 278 288 290 285 284 283 288 298 297
251 253 255 258 258 261 262 261 264 270 270 264 257 256 254 250 247 248 244 240 240 241 241 244 245 245 244 243 243 246 249 253 255 253 257 260 258 262 267 270 277 282 281 282 276 278 285 294 293
249 250 254 260 263 265 267 268 270 277 280 279 272 265 262 258 254 252 250 248 244 242 242 242 243 245 247 247 246 243 243 248 248 256 254 260 262 265 267 274 279 276 277 277 272 276 284 288 290
249 253 259 267 269 272 274 276 281 275 280 273 272 273 271 266 264 260 255 251 250 248 243 241 242 243 245 246 248 247 246 248 247 249 253 256 257 258 269 273 272 267 271 270 274 276 281 283 285
248 249 256 262 273 280 282 285 278 286 284 278 281 278 274 272 269 265 262 257 252 249 247 244 239 239 241 243 245 247 248 247 250 253 253 255 253 256 261 265 262 263 267 269 272 279 281 278 280
246 255 255 265 270 283 291 282 291 295 294 292 294 294 282 272 266 265 262 258 254 250 245 244 242 237 236 239 242 244 245 247 247 250 253 255 253 256 260 260 258 261 265 268 272 278 275 275 276
247 253 259 267 277 286 292 288 298 301 293 290 286 290 284 269 264 264 265 260 256 251 244 240 239 237 234 234 236 239 240 242 244 248 251 253 253 256 259 257 257 260 264 267 271 272 270 272 273
Height
5842 5846 5850 5854 5860 5864 5871 5876 5875 5873 5875 5877 5879 5881 5884 5889 5895 5901 5899 5900 5901 5900 5902 5903 5905 5906 5906 5906 5906 5905 5904 5902 5901 5902 5901 5901 5900 5900 5900 5899 5898 5897 5896 5895 5894 5892 5890 5888 5887
5835 5839 5843 5847 5851 5859 5868 5870 5870 5869 5870 5872 5872 5876 5882 5890 5892 5894 5896 5898 5898 5898 5900 5902 5903 5904 5905 5905 5905 5905 5904 5903 5902 5902 5903 5902 5902 5901 5900 5899 5897 5896 5895 5894 5893 5893 5892 5889 5887
5828 5832 5835 5838 5845 5854 5861 5863 5863 5865 5865 5866 5870 5874 5879 5879 5882 5888 5890 5894 5897 5896 5898 5900 5901 5902 5903 5903 5904 5904 5904 5904 5903 5903 5903 5902 5902 5901 5899 5898 5897 5895 5894 5892 5890 5890 5889 5888 5885
5822 5825 5828 5832 5842 5848 5851 5854 5854 5857 5859 5859 5866 5868 5873 5879 5881 5883 5885 5888 5893 5894 5895 5898 5899 5899 5901 5902 5903 5904 5904 5905 5904 5903 5902 5901 5901 5899 5898 5898 5896 5894 5893 5891 5889 5888 5886 5883 5882
5813 5817 5820 5824 5831 5833 5839 5842 5843 5847 5852 5855 5860 5862 5868 5872 5879 5881 5882 5885 5888 5890 5893 5895 5896 5897 5898 5900 5901 5902 5903 5903 5903 5902 5901 5899 5899 5898 5897 5896 5895 5894 5892 5891 5889 5886 5884 5882 5879
5804 5809 5811 5817 5821 5819 5830 5835 5840 5841 5846 5848 5854 5855 5861 5869 5875 5877 5879 5881 5884 5887 5889 5891 5893 5894 5895 5897 5898 5900 5901 5901 5901 5900 5899 5897 5897 5896 5895 5895 5893 5892 5891 5888 5887 5884 5881 5879 5877
5795 5800 5804 5810 5813 5812 5822 5829 5831 5836 5840 5842 5847 5849 5855 5863 5869 5872 5875 5876 5878 5883 5885 5888 5890 5892 5893 5893 5896 5897 5899 5899 5899 5898 5897 5896 5895 5894 5893 5892 5890 5889 5887 5885 5884 5882 5880 5878 5876
5788 5790 5794 5800 5805 5806 5814 5820 5824 5829 5833 5835 5840 5846 5848 5856 5862 5865 5869 5873 5874 5877 5881 5884 5886 5887 5889 5890 5892 5894 5896 5897 5897 5896 5895 5895 5893 5892 5891 5889 5888 5886 5885 5883 5882 5880 5878 5876 5874
5781 5781 5784 5794 5796 5799 5807 5810 5815 5820 5826 5829 5833 5839 5844 5849 5854 5859 5862 5866 5870 5872 5875 5878 5882 5883 5885 5886 5888 5890 5891 5893 5894 5893 5892 5891 5890 5890 5888 5886 5885 5884 5883 5881 5880 5878 5877 5875 5872
5771 5774 5779 5786 5788 5791 5798 5802 5804 5811 5817 5823 5827 5834 5839 5844 5849 5853 5855 5861 5865 5867 5869 5873 5876 5878 5880 5881 5884 5886 5887 5888 5890 5890 5889 5888 5888 5887 5886 5884 5882 5881 5879 5878 5877 5875 5874 5872 5869
5763 5767 5773 5776 5780 5783 5787 5789 5794 5803 5807 5814 5819 5827 5832 5835 5842 5846 5850 5850 5858 5860 5864 5867 5870 5873 5875 5876 5878 5880 5882 5883 5884 5886 5886 5885 5885 5885 5884 5883 5881 5879 5878 5877 5875 5874 5871 5869 5867
5755 5760 5763 5769 5773 5775 5778 5782 5790 5793 5798 5802 5809 5816 5823 5827 5832 5838 5842 5846 5849 5852 5855 5861 5863 5866 5869 5871 5872 5874 5876 5878 5880 5881 5882 5881 5881 5881 5880 5879 5878 5876 5875 5873 5872 5871 5869 5866 5865
5747 5751 5755 5760 5764 5767 5771 5775 5778 5779 5785 5788 5796 5803 5811 5816 5822 5827 5832 5837 5842 5845 5847 5852 5854 5857 5863 5865 5866 5868 5871 5870 5872 5875 5877 5877 5876 5876 5876 5875 5874 5872 5871 5869 5868 5867 5864 5863 5861
5740 5742 5746 5750 5755 5757 5764 5769 5764 5771 5772 5780 5786 5791 5798 5804 5810 5816 5821 5826 5833 5837 5839 5841 5847 5851 5853 5858 5857 5860 5865 5866 5864 5867 5869 5869 5872 5871 5872 5872 5870 5869 5868 5865 5864 5863 5860 5858 5856
5734 5737 5738 5742 5744 5750 5755 5761 5760 5759 5766 5773 5778 5781 5788 5793 5799 5805 5809 5817 5824 5829 5827 5833 5838 5839 5844 5849 5853 5854 5856 5857 5860 5859 5861 5863 5865 5866 5866 5865 5864 5862 5862 5861 5859 5857 5856 5854 5851
5728 5730 5731 5732 5737 5741 5746 5753 5752 5752 5757 5765 5769 5772 5777 5784 5790 5795 5800 5804 5812 5818 5823 5825 5830 5826 5830 5836 5841 5843 5848 5851 5853 5851 5854 5858 5859 5858 5861 5858 5861 5862 5858 5856 5854 5852 5850 5847 5844
5721 5723 5725 5727 5729 5732 5736 5742 5747 5747 5751 5754 5760 5763 5769 5774 5781 5786 5791 5796 5801 5808 5813 5818 5819 5817 5823 5824 5829 5833 5836 5843 5846 5846 5849 5852 5852 5853 5853 5855 5854 5854 5852 5848 5848 5845 5844 5841 5837
5713 5715 5718 5720 5724 5728 5731 5734 5739 5741 5744 5747 5749 5753 5759 5767 5773 5778 5784 5788 5793 5798 5803 5804 5809 5814 5819 5819 5818 5823 5824 5832 5840 5841 5845 5844 5841 5842 5846 5851 5849 5846 5846 5846 5842 5839 5837 5834 5831
5705 5707 5709 5711 5714 5719 5723 5725 5731 5733 5735 5737 5741 5744 5746 5754 5760 5767 5774 5778 5783 5787 5793 5797 5798 5799 5805 5810 5814 5817 5825 5827 5832 5834 5838 5837 5833 5836 5842 5842 5840 5834 5837 5836 5834 5833 5830 5828 5824
5699 5700 5702 5704 5706 5709 5714 5717 5720 5724 5725 5727 5730 5735 5738 5740 5744 5753 5761 5766 5772 5776 5781 5786 5792 5795 5798 5801 5804 5807 5813 5818 5824 5824 5828 5833 5834 5835 5836 5834 5832 5831 5827 5830 5829 5827 5824 5820 5816
5691 5691 5693 5696 5698 5700 5703 5706 5711 5713 5714 5716 5720 5724 5729 5732 5734 5738 5744 5751 5756 5763 5768 5773 5778 5783 5789 5793 5795 5798 5804 5808 5813 5817 5822 5826 5825 5826 5826 5826 5827 5828 5825 5826 5824 5821 5817 5812 5810
5683 5684 5685 5688 5690 5693 5694 5696 5703 5704 5704 5704 5707 5713 5717 5721 5724 5728 5731 5736 5742 5748 5753 5759 5765 5771 5775 5779 5784 5788 5792 5797 5803 5809 5813 5815 5818 5818 5818 5819 5820 5820 5820 5818 5817 5814 5810 5807 5803
5675 5675 5677 5679 5681 5684 5687 5688 5692 5694 5691 5694 5695 5698 5704 5708 5711 5713 5716 5720 5724 5729 5735 5742 5750 5756 5760 5765 5770 5775 5780 5786 5792 5797 5802 5805 5808 5811 5813 5812 5810 5812 5809 5811 5810 5807 5804 5801 5796
5667 5668 5670 5671 5673 5675 5677 5679 5684 5684 5682 5682 5683 5684 5686 5688 5692 5697 5701 5705 5710 5715 5721 5726 5733 5742 5747 5751 5757 5762 5767 5774 5778 5784 5790 5794 5797 5800 5802 5802 5801 5801 5802 5802 5802 5800 5797 5793 5791
5659 5660 5661 5663 5665 5667 5668 5671 5676 5669 5668 5666 5668 5669 5667 5668 5675 5682 5687 5692 5696 5700 5706 5711 5717 5726 5731 5736 5743 5749 5755 5760 5764 5773 5778 5781 5786 5790 5792 5791 5791 5792 5793 5793 5793 5791 5788 5786 5784
5651 5653 5654 5653 5656 5657 5658 5662 5662 5660 5652 5647 5647 5650 5652 5656 5664 5667 5670 5675 5681 5687 5692 5697 5702 5710 5715 5721 5729 5736 5742 5747 5753 5758 5764 5769 5773 5779 5780 5781 5782 5782 5783 5785 5784 5781 5780 5779 5776
5644 5645 5646 5645 5645 5645 5649 5652 5653 5647 5640 5636 5634 5633 5633 5642 5645 5649 5654 5660 5667 5672 5677 5682 5688 5695 5699 5705 5713 5722 5730 5736 5743 5748 5753 5756 5764 5767 5769 5771 5773 5771 5774 5776 5775 5773 5772 5771 5768
5635 5638 5639 5638 5637 5637 5639 5639 5638 5635 5628 5626 5622 5620 5622 5622 5623 5626 5629 5638 5648 5651 5657 5663 5670 5678 5684 5691 5700 5708 5716 5724 5729 5735 5741 5748 5754 5755 5757 5760 5762 5762 5765 5766 5766 5765 5763 5762 5760
5626 5629 5631 5631 5631 5629 5628 5632 5628 5624 5617 5617 5614 5608 5606 5607 5606 5606 5608 5612 5618 5624 5633 5642 5651 5660 5669 5678 5686 5694 5702 5710 5718 5724 5729 5736 5742 5743 5747 5751 5752 5754 5757 5757 5757 5756 5755 5754 5753
5621 5622 5623 5623 5624 5622 5619 5624 5617 5613 5608 5606 5602 5598 5595 5595 5596 5596 5597 5598 5598 5601 5608 5618 5627 5641 5651 5659 5669 5680 5689 5698 5706 5712 5719 5724 5730 5733 5737 5741 5743 5746 5746 5747 5748 5749 5747 5746 5745